Location: Buch’aani
(42.2843°N, 44.6919°E)
Time: 16:13:31
(UTC+00:00)

Daily predictions for brighter satellites

Satellite Brightness Start Highest point End
(mag) Time Altitude Azimuth Time Altitude Azimuth Time Altitude Azimuth
Delta 2 Rocket 4.4 14:53:36 10° SW 14:56:00 22° S 14:58:28 10° ESE
CZ-2D R/B 4.2 14:52:46 10° SE 14:56:10 29° ENE 14:59:37 10° N
BREEZE-M DEB (TANK) 3.2 14:55:58 10° WNW 14:59:45 85° SSW 15:04:27 10° ESE
Okean 1 Rocket 3.4 14:56:00 10° N 15:00:13 44° ENE 15:04:22 10° SSE
IRS-P3 4.1 14:55:52 10° SSE 15:01:09 72° ENE 15:06:29 10° N
Cosmos 2221 Rocket 3.8 14:58:53 10° S 15:03:12 52° E 15:07:34 10° NNE
Cosmos 1356 Rocket 3.2 14:59:54 10° N 15:03:51 78° ENE 15:07:50 10° SSE
Cosmos 1378 Rocket 4.2 15:00:27 10° SSW 15:04:42 60° W 15:08:57 10° N
Cosmos 2263 Rocket 3.9 15:02:28 10° ESE 15:04:49 13° E 15:07:11 10° ENE
Okean 2 Rocket 3.1 15:00:47 10° N 15:05:07 59° E 15:09:25 10° SSE
Cosmos 1980 4.1 15:02:16 10° NNW 15:07:37 41° ENE 15:12:54 10° SE
SJ-6F 4.4 15:05:43 10° SSE 15:09:39 86° WSW 15:13:36 10° NNW
ATLAS 5 CENTAUR R/B 3.3 15:06:05 10° NW 15:10:26 43° WSW 15:15:44 10° S
COSMOS 2428 2.8 15:04:57 10° NNW 15:10:43 88° WSW 15:16:26 10° SSE
NOSS 3-3 (C) 4.0 15:06:51 10° SW 15:11:56 70° NW 15:17:59 10° NNE
BREEZE-M DEB (TANK) 4.3 15:08:11 10° WNW 15:12:31 56° NNE 15:30:27 10° E
Cosmos 2237 Rocket 2.6 15:07:32 10° NNW 15:12:55 42° ENE 15:18:17 10° SE
Cosmos 2346 Rocket 4.5 15:07:38 10° S 15:13:50 68° E 15:20:04 10° NNE
SJ-6B 4.2 15:12:29 10° E 15:14:25 14° ENE 15:16:20 10° NNE
BREEZE-M DEB (TANK) 4.0 15:11:20 10° NW 15:14:42 49° NNE 15:24:31 10° E
Cosmos 1025 Rocket 3.0 15:10:44 10° S 15:15:01 87° WNW 15:19:22 10° N
Sich 1 Rocket 3.6 15:15:22 10° N 15:19:55 70° E 15:24:26 10° SSE
Cosmos 1570 Rocket 4.1 15:14:57 10° S 15:20:04 54° ESE 15:25:12 10° NNE
GP-B 4.1 15:15:58 10° SSW 15:20:12 49° W 15:24:27 10° NNW
BREEZE-M DEB (TANK) 4.2 15:18:24 10° S 15:21:22 25° ESE 15:27:31 11° ENE
SeaSat 1 2.5 15:16:50 10° SSE 15:21:44 84° WSW 15:26:39 10° NNW
Cosmos 1125 Rocket 3.4 15:17:29 10° NNW 15:22:41 72° ENE 15:27:51 10° SSE
SKYMED 2 3.9 15:20:41 10° N 15:25:02 71° WNW 15:29:20 10° SSW
USA 234 3.4 15:18:43 10° SE 15:25:16 79° SW 15:31:52 10° NW
Resurs 1-3 3.5 15:21:13 10° SSE 15:25:31 82° ENE 15:29:50 10° N
Resurs 01 Rocket 2.1 15:23:20 10° SE 15:27:21 36° ENE 15:31:24 10° N
SPOT 5 4.4 15:27:48 15° ENE 15:28:50 16° ENE 15:31:45 10° NNE
SJ-7 4.1 15:25:59 10° SSE 15:29:36 57° ENE 15:33:13 10° N
Cosmos 2227 Rocket 2.6 15:29:47 10° S 15:35:00 40° ESE 15:40:15 10° NE
Cosmos 1447 Rocket 4.5 15:30:39 10° S 15:36:47 89° W 15:42:57 10° N
Spot 4 Rocket 3.9 15:32:00 10° SSE 15:37:06 77° ENE 15:42:13 10° N
NOAA 6 4.0 15:32:13 10° SSE 15:37:17 63° ENE 15:42:23 10° N
SL-16 R/B 3.4 15:34:06 10° N 15:38:22 21° NE 15:40:09 18° ENE
Cosmos 2208 Rocket 4.0 15:35:53 10° S 15:40:59 59° ESE 15:46:12 10° NNE
Cosmos 773 Rocket 4.0 15:36:22 10° S 15:41:33 65° ESE 15:46:48 10° NNE
CARTOSAT-1 3.4 15:45:19 10° SSE 15:49:31 85° ENE 15:53:44 10° N
Tiangong -1.9 15:46:58 10° WSW 15:50:06 57° SSE 15:51:05 37° ESE
Cosmos 1346 Rocket 3.1 15:50:17 10° SSE 15:53:35 35° E 15:53:52 34° E
Cosmos 2285 Rocket 4.2 15:48:25 10° NNW 15:54:51 77° WSW 16:01:12 10° SSE
SL-19 R/B 4.4 15:49:00 10° SSE 15:55:12 86° ENE 16:01:10 10° NNW
Gbstr 26 Del rocket 4.5 15:51:44 10° SSW 15:58:03 50° SE 16:02:22 24° ENE
NOSS 3-4 (A) 3.9 15:54:22 10° NNW 16:01:13 67° NE 16:08:21 14° SE
NOSS 3-4 (C) 3.9 15:54:39 10° NNW 16:01:30 66° NE 16:08:31 14° SE
Radarsat Rocket 4.3 15:56:52 10° S 16:02:40 70° WSW 16:08:52 10° NNW
Cosmos 1513 Rocket 4.5 15:58:28 10° N 16:04:49 90° E 16:11:12 10° S
Atlas Centaur 2 4.0 15:58:53 10° WSW 16:05:31 31° S 16:10:01 16° SE
Cosmos 2034 Rocket 4.2 16:01:16 10° N 16:07:08 43° ENE 16:13:00 10° SSE
CRYOSAT 2 4.4 16:02:54 10° N 16:07:48 82° W 16:12:40 10° S
Cosmos 1072 Rocket 4.4 16:02:08 10° N 16:08:21 73° E 16:14:29 10° SSE
Cosmos 2344 3.6 16:00:17 10° SSW 16:08:21 57° ESE 16:13:39 19° NE
ARIANE 6 FM1 Upper Stage 4.5 16:07:11 10° N 16:09:02 17° NNE 16:09:02 17° NNE
Cosmos 2150 Rocket 3.9 16:04:58 10° NNW 16:10:07 65° ENE 16:13:54 18° SSE
CSL-04 Rocket 4.0 16:12:01 36° E 16:13:10 40° ENE 16:18:04 10° N
Cosmos 2298 Rocket 3.9 16:07:58 10° NNW 16:13:15 66° ENE 16:16:53 20° SSE
Cosmos 2297 Rocket 3.5 16:14:26 10° SW 16:19:41 39° WNW 16:24:59 10° N
Cosmos 44 Rocket 4.0 16:15:44 10° SW 16:20:31 53° NW 16:24:33 15° NNE
Cosmos 1975 Rocket 3.2 16:16:45 10° SSW 16:21:06 72° W 16:25:25 10° N
Cosmos 1455 Rocket 4.1 16:18:34 10° NNW 16:22:40 45° W 16:26:45 10° SSW
IRAS Rocket 4.2 16:17:20 10° SSE 16:22:56 86° WSW 16:28:36 10° NNW
DNEPR-1 R/B 4.0 16:19:04 10° NNW 16:24:03 65° NE 16:25:50 43° ESE
Helios 1A Rocket 2.5 16:24:50 67° WSW 16:24:50 67° WSW 16:27:47 10° SSW
Cosmos 2228 3.0 16:22:12 10° N 16:26:24 77° W 16:30:35 10° S
CZ-4C R/B 4.3 16:26:46 10° WNW 16:29:44 16° NNW 16:33:07 10° NNE
Cosmos 1782 3.6 16:26:52 10° N 16:29:04 35° N 16:29:04 35° N
Cosmos 2219 3.7 16:29:01 10° S 16:33:10 39° SE 16:33:10 39° SE
Cosmos 1464 Rocket 4.1 16:28:38 10° N 16:35:00 77° W 16:41:15 10° S
SJ-6B 4.2 16:46:06 23° SW 16:47:29 32° W 16:50:38 10° NNW
Cosmos 2263 Rocket 2.1 16:42:11 10° SSW 16:47:51 87° WNW 16:49:56 41° NNE
Cosmos 2237 Rocket 4.0 16:51:55 10° NW 16:56:45 29° WSW 17:01:33 10° SSW
Resurs 01 Rocket 4.1 17:00:30 10° SW 17:03:48 21° W 17:07:08 10° NW
SPOT 5 3.3 17:06:50 58° NW 17:06:50 58° NW 17:11:09 10° NNW
Cosmos 2227 Rocket 3.8 17:14:07 10° WSW 17:19:06 31° NW 17:23:23 13° N
Tsikada Rocket 4.1 17:15:14 10° SSW 17:21:20 69° W 17:27:30 10° N
SL-16 R/B 2.7 17:17:21 10° NNW 17:22:04 56° WNW 17:22:04 56° WNW
